Location: Bon Acre
(42.6442°N, 73.5758°W)
Time: 09:48:59
(UTC+00:00)

Cosmos-2242 - Pass Details

Date: 14 December 2025
Orbit: 566 x 591 km, 82.5° (Epoch: 21 January)

Event Time Altitude Azimuth Distance (km) Brightness Sun altitude
Rises 21:52:22 0° 150° (SSE) 2,814 6.4 -5.8°
Reaches altitude 10° 21:55:02 10° 134° (SE) 1,921 5.4 -6.3°
Maximum altitude 21:58:06 20° 87° (E) 1,403 4.3 -6.8°
Drops below altitude 10° 22:01:11 10° 41° (NE) 1,933 5.0 -7.3°
Enters shadow 22:02:42 - 30° (NNE) 2,426 5.6 -7.5°
